Location: Trebic
(49.2170°N, 15.8830°E)
Time: 22:10:45
(UTC+01:00)

Transit 4A - Pass Details

Date: 31 October 2020
Orbit: 862 x 982 km, 66.8° (Epoch: 30 November)

Event Time Altitude Azimuth Distance (km) Brightness Sun altitude
Rises 22:11:15 0° 324° (NW) 3,696 11.7 -50.8°
Reaches altitude 10° 22:13:54 10° 328° (NNW) 2,745 10.8 -51.0°
Enters shadow 22:13:57 10° 328° (NNW) 2,723 10.8 -51.0°
